Regional Weather Roundup
Issued by NWS

Home | Current Version | Previous Version | Text Only | Print | Product List | Glossary Off
Versions: 1 2 3 4 5 6 7 8 9 10 11 12 13 14 15 16 17 18 19 20 21 22 23 24 25 26 27 28 29 30 31 32 33 34 35 36 37 38 39 40 41 42 43 44 45 46 47 48 49 50

000
ASUS43 KBIS 030410
RWRND

NORTH DAKOTA REGIONAL WEATHER ROUNDUP
NATIONAL WEATHER SERVICE BISMARCK ND
1100 PM CDT SUN AUG 02 2015

NOTE: "FAIR" INDICATES FEW OR NO CLOUDS BELOW 12,000 FEET WITH NO
SIGNIFICANT WEATHER AND/OR OBSTRUCTIONS TO VISIBILITY.


NDZ001>003-009>011-017-030500-
NORTHWEST NORTH DAKOTA

CITY           SKY/WX    TMP DP  RH WIND       PRES   REMARKS
WILLISTON      CLEAR     67  48  50 N7        30.01R
MINOT          CLEAR     60  49  66 NW8       29.95R
MINOT AFB      CLEAR     62  52  71 NW7       29.95R
$$

NDZ018>021-031>035-040>046-030500-
SOUTHWEST NORTH DAKOTA

CITY           SKY/WX    TMP DP  RH WIND       PRES   REMARKS
BISMARCK       CLEAR     68  52  56 N3        29.97R
DICKINSON      CLEAR     57  49  74 SE5       30.01R
GARRISON         N/A     59  53  80 NW8       29.97R
HETTINGER ARPT CLEAR     56  48  74 NE3       30.03R
$$

NDZ004>008-012>016-024-026-027-054-030500-
NORTHEAST NORTH DAKOTA

CITY           SKY/WX    TMP DP  RH WIND       PRES   REMARKS
GRAND FORKS    CLEAR     58  50  75 W8        29.85R
GRND FRKS AFB  CLEAR     59  50  72 W8        29.86R
DEVILS LAKE    CLEAR     59  48  67 NW9       29.91R
$$

NDZ022-023-025-028>030-036>039-047>053-030500-
SOUTHEAST NORTH DAKOTA

CITY           SKY/WX    TMP DP  RH WIND       PRES   REMARKS
FARGO          CLEAR     61  52  72 W9        29.86R
JAMESTOWN      CLEAR     61  52  72 NW8       29.92R
$$



USA.gov is the U.S. government's official web portal to all federal, state and local government web resources and services.